LKKV Weather Reports


Display with metric or nautical units.
time (UTC)temp
F
wind
direction
speed
MPH
gust
MPH
rain 1hr
in
rain 24hr
in
rain mn
in
humidity
%
barometer
mb
20260505123210 68 340 6.0 0.0 0.00 0.00 0.00 49 1007.0
20260505121623 68 30 5.0 0.0 0.00 0.00 0.00 45
20260505120211 68 0 2.0 0.0 0.00 0.00 0.00 45 1007.0
20260505114102 68 70 5.0 0.0 0.00 0.00 0.00 45 1007.0
20260505113209 68 40 6.0 0.0 0.00 0.00 0.00 45 1007.0
20260505111622 72 330 5.0 0.0 0.00 0.00 0.00 40
20260505110223 72 0 3.0 0.0 0.00 0.00 0.00 40 1007.0
20260505101623 68 350 5.0 0.0 0.00 0.00 0.00 45
20260505100212 68 0 2.0 0.0 0.00 0.00 0.00 45 1008.0
20260505093210 68 30 7.0 0.0 0.00 0.00 0.00 45 1008.0
20260505091623 68 30 7.0 0.0 0.00 0.00 0.00 45
20260505090212 68 40 7.0 0.0 0.00 0.00 0.00 49 1009.0
20260505083210 66 50 5.0 0.0 0.00 0.00 0.00 52 1009.0
20260505081622 64 30 7.0 0.0 0.00 0.00 0.00 55
20260505080217 64 30 7.0 0.0 0.00 0.00 0.00 55 1009.0
20260505073210 61 30 7.0 0.0 0.00 0.00 0.00 63 1009.0
20260505071622 61 30 7.0 0.0 0.00 0.00 0.00 63
20260505070304 61 30 6.0 0.0 0.00 0.00 0.00 63 1009.0
20260505063209 59 20 6.0 0.0 0.00 0.00 0.00 62 1010.0
20260505061623 57 340 2.0 0.0 0.00 0.00 0.00 71
20260505060211 57 350 3.0 0.0 0.00 0.00 0.00 71 1010.0
20260505051623 55 200 2.0 0.0 0.00 0.00 0.00 71
20260505050217 54 140 3.0 0.0 0.00 0.00 0.00 81 1010.0
20260505041622 57 40 5.0 0.0 0.00 0.00 0.00 67
20260505040211 57 30 3.0 0.0 0.00 0.00 0.00 67 1009.0
20260505032403 57 20 5.0 0.0 0.00 0.00 0.00 67 1010.0
20260505031623 57 60 5.0 0.0 0.00 0.00 0.00 67
20260505030212 57 50 3.0 0.0 0.00 0.00 0.00 67 1010.0
20260505021622 59 40 5.0 0.0 0.00 0.00 0.00 62
20260505020210 59 20 6.0 0.0 0.00 0.00 0.00 62 1010.0
20260505011624 57 40 5.0 0.0 0.00 0.00 0.00 67
20260505010210 57 30 6.0 0.0 0.00 0.00 0.00 67 1011.0
20260505001623 55 40 2.0 0.0 0.00 0.00 0.00 71
20260505000212 57 0 2.0 0.0 0.00 0.00 0.00 67 1011.0
20260504231623 59 330 5.0 0.0 0.00 0.00 0.00 62
20260504230219 59 320 5.0 0.0 0.00 0.00 0.00 62 1012.0
20260504221623 61 290 2.0 0.0 0.00 0.00 0.00 59
20260504220218 61 0 1.0 0.0 0.00 0.00 0.00 59 1012.0
20260504211622 61 90 7.0 0.0 0.00 0.00 0.00 59
20260504210213 61 80 6.0 0.0 0.00 0.00 0.00 59 1012.0
20260504201621 63 50 7.0 0.0 0.00 0.00 0.00 55
20260504200211 63 60 8.0 0.0 0.00 0.00 0.00 55 1012.0
20260504191623 61 70 2.0 0.0 0.00 0.00 0.00 48
20260504190219 61 0 0.0 0.0 0.00 0.00 0.00 48 1012.0
20260504183210 61 0 1.0 0.0 0.00 0.00 0.00 51 1012.0
20260504181623 66 270 2.0 0.0 0.00 0.00 0.00 39
20260504180212 64 0 1.0 0.0 0.00 0.00 0.00 42 1012.0
20260504173209 68 0 2.0 0.0 0.00 0.00 0.00 34 1012.0
20260504171624 72 190 2.0 0.0 0.00 0.00 0.00 28
20260504170212 72 0 2.0 0.0 0.00 0.00 0.00 30 1012.0
20260504160219 70 280 5.0 0.0 0.00 0.00 0.00 32 1012.0
20260504150210 70 290 8.0 0.0 0.00 0.00 0.00 32 1013.0
20260504140212 72 0 5.0 0.0 0.00 0.00 0.00 30 1013.0
20260504130225 70 240 6.0 0.0 0.00 0.00 0.00 32 1013.0